Regional Weather Roundup
Issued by NWS Upton, NY

Home | Current Version | Previous Version | Text Only | Print | Product List | Glossary On
Versions: 1 2 3 4 5 6 7 8 9 10 11 12 13 14 15 16 17 18 19 20 21 22 23 24 25 26 27
000
ASUS41 KOKX 241105
RWROKX

Regional Weather Roundup
National Weather Service New York NY
700 AM EDT TUE APR 24 2018

Note: "FAIR" indicates few or no clouds below 12,000 feet with no
significant weather and/or obstructions to visibility.

NYZ071-072-176-178-NJZ106-104-241200-
New York City Metro Area

CITY           SKY/WX    TMP DP  RH WIND       PRES   REMARKS
Central Park   FAIR      48  43  82 VRB3      30.42F
Bronx Bot Gard   N/A     43  41  93 NE2       30.41F
Bronx Lehman C   N/A     46  41  81 E3          N/A
LaGuardia Arpt MOCLDY    47  42  83 E6        30.40S
Queens College   N/A     46  43  87 E3          N/A
Kennedy Intl   MOCLDY    43  43 100 NE6       30.41F
Breezy Point     N/A     45 N/A N/A E5          N/A
Brooklyn Coll    N/A     48  43  81 NE3         N/A
Staten Island    N/A     43  41  93 E1          N/A
Newark/Liberty MOCLDY    49  44  83 E3        30.40S
Teterboro      FAIR      43  37  79 N3        30.40S
$$

NYZ177-179-078>081-241200-
Long Island New York

CITY           SKY/WX    TMP DP  RH WIND       PRES   REMARKS
Jones Beach      N/A     45 N/A N/A E3          N/A
Wantagh          N/A     41  39  93 NE5         N/A
Hempstead        N/A     45  43  93 CALM      30.43S
Matinecock Pt    N/A     43 N/A N/A E2          N/A
Farmingdale    FAIR      39  38  96 CALM      30.42S
MacArthur/ISP  FAIR      39  39 100 NE3       30.41S
Stony Brook      N/A     41  39  93 E1          N/A
Shirley        FAIR      35  35 100 CALM      30.43R
Mt Sinai Harb    N/A    N/A N/A N/A MISG        N/A
Westhampton    FAIR      31  28  89 CALM      30.44S
East Hampton   FAIR      32  30  92 CALM      30.43S
Southold         N/A     39  37  93 NE1         N/A
Montauk          N/A     48  43  82 S3        30.44R
$$

NYZ052-065-067-241200-
Hudson Valley

CITY           SKY/WX    TMP DP  RH WIND       PRES   REMARKS
White Plains   FAIR      38  35  89 CALM      30.39S
Larchmont Harb   N/A     41 N/A N/A N3          N/A
Croton On Huds   N/A     39 N/A N/A N2          N/A
Somers           N/A     37  36  93 NE1         N/A
Brewster         N/A     36  34  93 N1          N/A
Newburgh       CLEAR     39  34  81 CALM      30.40R
Montgomery     FAIR      33  30  88 CALM      30.39R
Otisville        N/A     32  32 100 W1          N/A
Warwick          N/A     34  32  93 E2          N/A
Suffern          N/A     41  37  87 NE1         N/A
Poughkeepsie   FAIR      35  31  85 CALM      30.40R
Albany         MOCLDY    47  28  47 S9        30.37R
$$

NJZ001-105-106-008-010-013-015-019>022-104-241200-
New Jersey

CITY           SKY/WX    TMP DP  RH WIND       PRES   REMARKS
Newark/Liberty MOCLDY    49  44  83 E3        30.40S
Teterboro      FAIR      43  37  79 N3        30.40S
Caldwell       FAIR      37  35  92 E3        30.41S
Somerville     FAIR      33  33 100 CALM      30.39S
Linden         FAIR      43  39  86 CALM      30.41S
Perth Amboy      N/A     46 N/A N/A CALM        N/A
Sussex         FAIR      32  32 100 CALM      30.39S
Andover          N/A     36  33  89 CALM      30.38F
Trenton        FAIR      43  35  73 CALM      30.39R
Millville      FAIR      43  39  86 CALM      30.36S
Atlantic City  FAIR      49  43  80 E7        30.38S
Wrightstown    NOT AVBL
Toms River     FAIR      35  32  88 CALM      30.41R
Belmar         FAIR      43  41  93 SE3       30.41R
$$

PAZ047>061-062-071-241200-
Eastern Pennsylvania

CITY           SKY/WX    TMP DP  RH WIND       PRES   REMARKS
Philadelphia   MOCLDY    44  37  76 E5        30.38S
Allentown      FAIR      44  30  57 NE6       30.38R
Scranton       FAIR      46  23  40 VRB6      30.34F
$$

CTZ002-004>006-009-010-012-RIZ004-006-007-MAZ004-011-015-241200-
Southern New England

 In CT

CITY           SKY/WX    TMP DP  RH WIND       PRES   REMARKS
Bradley Intl   PTSUNNY   40  36  86 S3        30.41R
Hartford       FAIR      40  36  86 S3        30.43R
Danbury        FAIR      33  30  88 CALM      30.43R
Wtrbury/Oxford FAIR      39  38  96 CALM      30.41S
Norwalk Harbor   N/A     37 N/A N/A N6          N/A  WCI  33
Bridgeport     FAIR      41  38  89 N3        30.43R
Meriden        FAIR      34  33  96 CALM      30.43R
New Haven      FAIR      37  34  89 CALM      30.43R
Chester          N/A     45  41  87 VRB3      30.43R
Groton         FAIR      36  36 100 CALM      30.44R
Willimantic    FAIR      33  28  81 CALM      30.44R

 In RI

CITY           SKY/WX    TMP DP  RH WIND       PRES   REMARKS
Providence     FAIR      38  36  92 CALM      30.44R
Block Island   FAIR      46  41  82 S8        30.44R
Westerly       FOG       35  35 100 CALM      30.45R VSB 1

In MA

CITY           SKY/WX    TMP DP  RH WIND       PRES   REMARKS
Boston         FAIR      44  34  67 SW8       30.41R
Worcester      FAIR      43  27  53 W13       30.38R
Westfield      FAIR      33  30  88 CALM      30.41R
Provincetown   FAIR      44  38  79 S10       30.44R
Nantucket      FAIR      42  42 100 S5        30.45S
$$

ANZ330-335-338-340-345-350-353-355-241200-
Coastal Marine Observations


STATION/POSITION TIME  SKY/WX   TEMP    WIND        PRES    VSBY  WAVE
                                AIR SEA DIR/SP/G                  HT/PER
                 (UTC)          (F)     (DEG/KT/KT) (MB)    (MI)  (FT/S)
NY Harb Entrance 1050            49 46  130/  4/  6 1029.8          1/ 9
20 S Fire Island 1050            47 44  130/  6/  6 1029.8          1/ 8
23 SSW Montauk P 1050            46 43  170/  6/  6 1030.8          1/ 8
15 E Barnegat Li 1030               46                N/A           2/14
Hudson Canyon    1050            50 46  110/  6/  8 1029.5          1/14
Kings Point      1048               46   70/  1/  3 1030.7
Execution Rocks  NOT AVBL
Western LI Sound NOT AVBL
Central LI Sound 1015            43      80/  6/  6   N/A           0
Robbins Reef     1048            47      90/  2/  3 1030.0
$$


>>>>>>>>>>>>>>>>>>>>>>>>>>>> KEY <<<<<<<<<<<<<<<<<<<<<<<<<<<
>                                                          <
>     SKY/WX - Sky Condition/Present Weather               <
>     TMP    - Temperature in Fahrenheit                   <
>     DP     - Dew Point in Fahrenheit                     <
>     RH     - Relative Humidity in Percent                <
>     WIND   - Direction (from) and Speed in MPH           <
>     PRES   - Mean Sea Level Pressure (inches of Hg)      <
>     WCI    - Wind Chill Index                            <
>     VSB    - Visibility in Miles                         <
>     HX     - Heat Index                                  <
>     TC     - Temperature in Celsius                      <
>     VRB    - Varibale Wind Direction                     <
>                                                          <
>>>>>>>>>>>>>>>>>>>>>>>>>>>> KEY <<<<<<<<<<<<<<<<<<<<<<<<<<<




USA.gov is the U.S. government's official web portal to all federal, state and local government web resources and services.